Weather History for Bishop, CA

Change the Weather History Date:

Thursday, August 15, 2013

  Actual Average Record
Temperature  
Mean Temperature 76 °F 75 °F  
Max Temperature 99 °F 97 °F 105 °F (2002)
Min Temperature 52 °F 54 °F 40 °F (1954)
Degree Days  
Heating Degree Days 0 0  
Month to date heating degree days 0 0  
Since 1 June heating degree days 0 20  
Since 1 July heating degree days 0 1  
Cooling Degree Days 11 10  
Month to date cooling degree days 123 171  
Year to date cooling degree days 994 835  
Since 1 June cooling degree days 908 767  
Growing Degree Days 26 (Base 50)    
Moisture  
Dew Point 27 °F    
Average Humidity 21    
Maximum Humidity 35    
Minimum Humidity 6    
Precipitation  
Precipitation 0.00 in 0.00 in 0.26 in (2005)
Month to date precipitation 0.00 0.06  
Year to date precipitation 0.95 3.30  
Snow  
Snow 0.00 in 0.00 in - ()
Month to date snowfall 0.0 0.0  
Since 1 June snowfall 0.0 0.0  
Since 1 July snowfall 0.0 0.0  
Snow Depth 0.00 in    
Sea Level Pressure  
Sea Level Pressure 29.88 in    
Wind  
Wind Speed 7 mph (ENE)    
Max Wind Speed 20 mph    
Max Gust Speed 26 mph    
Visibility 10 miles    
Events      
T = Trace of Precipitation, MM = Missing Value Source: NWS Daily Summary

Daily Weather History Graph

Daily Weather History Graph

Search for Another Location

Airport:

Trip Planner

Search our weather history database for the weather conditions in past years. The results will help you decide how hot, cold, wet, or windy it might be!

Date:

Astronomy

Aug. 15, 2013 Rise Set
Actual Time 6:09 AM PDT 7:45 PM PDT
Civil Twilight 5:42 AM PDT 8:12 PM PDT
Nautical Twilight 5:08 AM PDT 8:46 PM PDT
Astronomical Twilight 4:33 AM PDT 9:21 PM PDT
Moon 3:05 PM PDT (8/15) 12:25 AM PDT (8/15)
Length of Visible Light 14h 30m
Length of Day
13h 35m
Waxing Gibbous, 65% of the Moon is Illuminated
Aug 15
Waxing Gibbous
Aug 20
Full
Aug 28
Last Quarter
Sep 5
New
Sep 12
First Quarter

Hourly Weather History & Observations

Time (PDT) Temp. Dew Point Humidity Pressure Visibility Wind Dir Wind Speed Gust Speed Precip Events Conditions
12:56 AM 69.1 °F 24.1 °F 18% 29.88 in 10.0 mi NE 6.9 mph - N/A   Clear
1:56 AM 64.9 °F 24.1 °F 21% 29.88 in 10.0 mi NNW 6.9 mph - N/A   Clear
2:56 AM 60.1 °F 24.1 °F 25% 29.89 in 10.0 mi NNW 6.9 mph - N/A   Clear
3:56 AM 57.9 °F 25.0 °F 28% 29.90 in 10.0 mi NW 5.8 mph - N/A   Clear
4:56 AM 52.0 °F 25.0 °F 35% 29.91 in 10.0 mi NNE 5.8 mph - N/A   Clear
5:56 AM 57.0 °F 24.1 °F 28% 29.92 in 10.0 mi NNW 5.8 mph - N/A   Clear
6:56 AM 54.0 °F 24.1 °F 31% 29.95 in 10.0 mi NNW 4.6 mph - N/A   Clear
7:56 AM 66.9 °F 25.0 °F 21% 29.95 in 10.0 mi North 4.6 mph - N/A   Clear
8:56 AM 75.0 °F 25.0 °F 16% 29.94 in 10.0 mi Variable 3.5 mph - N/A   Clear
9:56 AM 82.0 °F 23.0 °F 11% 29.93 in 10.0 mi Calm Calm - N/A   Clear
10:56 AM 87.1 °F 21.0 °F 9% 29.92 in 10.0 mi Calm Calm - N/A   Clear
11:56 AM 91.9 °F 23.0 °F 8% 29.88 in 10.0 mi South 8.1 mph 18.4 mph N/A   Clear
12:56 PM 95.0 °F 27.0 °F 9% 29.86 in 10.0 mi South 16.1 mph 23.0 mph N/A   Clear
1:56 PM 98.1 °F 21.9 °F 7% 29.84 in 10.0 mi SE 15.0 mph 26.5 mph N/A   Clear
2:56 PM 98.1 °F 28.9 °F 9% 29.83 in 10.0 mi South 10.4 mph 20.7 mph N/A   Clear
3:56 PM 98.1 °F 32.0 °F 10% 29.82 in 10.0 mi South 13.8 mph 20.7 mph N/A   Clear
4:56 PM 96.1 °F 32.0 °F 10% 29.82 in 10.0 mi SSE 12.7 mph - N/A   Clear
5:56 PM 97.0 °F 30.9 °F 10% 29.81 in 10.0 mi SSE 13.8 mph 20.7 mph N/A   Clear
6:56 PM 93.9 °F 35.1 °F 13% 29.82 in 10.0 mi South 9.2 mph - N/A   Clear
7:56 PM 86.0 °F 35.1 °F 16% 29.83 in 10.0 mi East 3.5 mph - N/A   Clear
8:56 PM 80.1 °F 35.1 °F 20% 29.85 in 10.0 mi NNE 5.8 mph - N/A   Clear
10:56 PM 77.0 °F 28.9 °F 17% 29.88 in 10.0 mi NNE 8.1 mph - N/A   Clear
11:56 PM 75.0 °F 28.9 °F 18% 29.88 in 10.0 mi Calm Calm - N/A   Clear